Regional Weather Roundup
Issued by NWS

Home | Current Version | Previous Version | Graphics & Text | Print | Product List | Glossary On
Versions: 1 2 3 4 5 6 7 8 9 10 11 12 13 14 15 16 17 18 19 20 21 22 23 24 25 26 27 28 29 30 31 32 33 34 35 36 37 38 39 40 41 42 43 44 45 46 47 48 49 50
000
ASUS45 KTFX 250510
RWRMT
MONTANA REGIONAL WEATHER ROUNDUP
NATIONAL WEATHER SERVICE GREAT FALLS MT
1100 PM MDT MON APR 24 2017

NOTE: "FAIR" INDICATES FEW OR NO CLOUDS BELOW 12000 FEET WITH NO
SIGNIFICANT WEATHER AND/OR OBSTRUCTIONS TO VISIBILITY.

MTZ001>007-043-250600-
WEST OF THE DIVIDE

CITY           SKY/WX    TMP DP  RH WIND       PRES   REMARKS
KALISPELL      CLOUDY    42  40  92 W5        29.70R
MISSOULA       LGT RAIN  43  39  86 N6        29.73R
BUTTE          FLURRIES  33  31  92 SE5       29.66S
MULLAN PASS    FOG       30  30 100 NW7       29.70R VSB 3/4 WCI  23
ANACONDA         N/A     39  34  81 W13G18    29.65F WCI  32
DEER LODGE       N/A     41  34  75 NW6       29.68R
EUREKA           N/A     41  37  87 E3        29.71R
HAMILTON         N/A     41  37  87 CALM      29.71R
LIBBY            N/A     43  37  81 CALM      29.69R
PLAINS           N/A     46  39  76 CALM      29.75R
$$

MTZ008-052>055-250600-
SOUTHWEST MONTANA

CITY           SKY/WX    TMP DP  RH WIND       PRES   REMARKS
BOZEMAN        CLOUDY    43  35  73 W12       29.61R
DILLON         LGT RAIN  38  35  89 W3        29.64R
W YELLOWSTONE  CLOUDY    32  32 100 CALM      29.63R
ENNIS          CLOUDY    34  32  93 NE6       29.68R FOG     WCI  29
THREE FORKS      N/A     44  36  73 CALM      29.66R
TWIN BRIDGES     N/A     39  33  79 NW6       29.68R
$$

MTZ009-010-012-014-046-048-049-054-250600-
EAST SLOPES AND CENTRAL MONTANA

CITY           SKY/WX    TMP DP  RH WIND       PRES   REMARKS
CUT BANK       CLOUDY    38  35  89 N9        29.70R WCI  31
GREAT FALLS    CLOUDY    42  38  85 NW6       29.68R
MALMSTROM AFB  CLOUDY    44  40  83 N7        29.68R
HELENA         CLOUDY    47  37  68 N10       29.64R
AUGUSTA        LGT RAIN  39  37  95 NE8       29.68R
BOWMANS CRNR   MOCLDY    36  35  96 NE12      29.66R WCI  28
CHOTEAU          N/A     39  37  93 CALM      29.71R
FAIRFIELD      CLOUDY    41  36  81 E3        29.68R
POWER          LGT RAIN  40  38  94 NW6       29.68R
RAYNESFORD     LGT RAIN  41  37  84 MISG      29.67R
ULM            MOCLDY    42  40  92 NW9       29.68R
$$

MTZ011-013-016-021-045-047-050-051-250600-
NORTH CENTRAL MONTANA

CITY           SKY/WX    TMP DP  RH WIND       PRES   REMARKS
HAVRE          CLOUDY    39  33  79 E22       29.71R WCI  29
LEWISTOWN      CLOUDY    41  37  86 NE6       29.66S
N BAR RANCH    MIX PCPN  39  37  93 SE5       29.70R
CHINOOK          N/A     37  28  70 E16G24    29.75R WCI  28
DENTON         LGT RAIN  42  41  96 MISG      29.65R
FORT BENTON      N/A     45  39  81 MISG      29.69R
GEYSER         MOCLDY    39  37  91 MISG      29.67R
GRASS RANGE    CLOUDY    41  39  93 E14       29.65R
JUDITH GAP     MOCLDY    40  36  83 NW15      29.65R
STANFORD       SHOWER    39  37  93 E5        29.67R
WINIFRED       MOCLDY    40  39  96 E14       29.67R
$$

MTZ017>020-022>027-061-062-250600-
NORTHEAST MONTANA

CITY           SKY/WX    TMP DP  RH WIND       PRES   REMARKS
GLASGOW        CLOUDY    32  25  75 E17       29.81R WCI  21
JORDAN           N/A     34  28  79 NE16      29.75R WCI  24
WOLF POINT     CLOUDY    32  25  75 E14       29.83R WCI  22
MALTA          CLOUDY    34  27  75 E14       29.79R WCI  24
PLENTYWOOD       N/A     28  27  93 E12       29.85R WCI  18
SCOBEY           N/A     28  20  72 NE9       29.83R WCI  19
$$

MTZ028>42-056>058-250600-
SOUTHCENTRAL AND SOUTHEAST MONTANA

CITY           SKY/WX    TMP DP  RH WIND       PRES   REMARKS
BAKER          CLOUDY    34  32  92 E15       29.71R FOG     WCI  24
BILLINGS       LGT RAIN  44  41  89 E8        29.63R
LIVINGSTON     LGT RAIN  41  39  93 E7        29.63R
MILES CITY     CLOUDY    38  32  79 NE15      29.70R WCI  29
BIG TIMBER     CLOUDY    37  37 100 N12       29.67R WCI  30
EKALAKA          N/A     37  32  82 E12       29.66S WCI  29
LAUREL           N/A     43  39  85 NE6       29.65R
ROUNDUP          N/A     44  36  73 NE13      29.61R
$$

REGIONAL REPORTS...DAKOTAS

CITY           SKY/WX    TMP DP  RH WIND       PRES   REMARKS
WILLISTON      CLOUDY    31  25  78 NE12      29.83R WCI  22
MINOT          CLOUDY    32  28  85 N13       29.81R WCI  22
DICKINSON      CLOUDY    29  27  92 NE13      29.72S WCI  19
BEACH          CLOUDY    30  30 100 E12       29.76S WCI  21
TIOGA          CLOUDY    28  28 100 E17       29.82R WCI  16
WATFORD CITY   CLOUDY    30  28  93 NE12      29.79S WCI  21
BISMARCK       CLOUDY    34  30  85 N10       29.74S WCI  26
GRAND FORKS    CLOUDY    34  32  92 N16       29.69R WCI  24
FARGO          CLOUDY    36  35  96 N21       29.62R WCI  25
BUFFALO SD       N/A     37  33  85 NE16      29.61S WCI  28
RAPID CITY     CLOUDY    41  35  79 NE12      29.63R
$$

REGIONAL REPORTS...WYOMING/IDAHO/WASHINGTON

CITY           SKY/WX    TMP DP  RH WIND       PRES   REMARKS
GILLETTE       CLOUDY    45  42  89 E12       29.53F
SHERIDAN       LGT RAIN  42  38  85 NE10      29.60S
BUFFALO WY     LGT RAIN  40  36  86 NW14G28   29.57F
CODY           CLOUDY    39  35  86 N8        29.60S
YELLOWSTONE LA   N/A     30  30 100 CALM      29.64F
IDAHO FALLS    CLOUDY    41  38  89 SW15G21   29.68S
SALMON         CLOUDY    37  36  93 SW3       29.69R
BOISE          CLOUDY    46  41  82 N3        29.76R
SPOKANE        PTCLDY    43  37  79 W6        29.74R
$$

REGIONAL REPORTS...ALBERTA

CITY           SKY/WX    TMP DP  RH WIND       PRES   REMARKS
EDMONTON       MIX PCPN  32  32 100 N3        29.85R
CALGARY        LGT SNOW  34  32  93 NE10      29.77R FOG     WCI  26
LETHBRIDGE     CLOUDY    43  37  81 NE9       29.72R
MEDICINE HAT   CLOUDY    37  32  81 E17G26    29.76R WCI  28
WATERTON GATE    N/A     34  32  93 NE3         N/A
CARDSTON         N/A     39  36  87 CALM        N/A
MILK RIVER       N/A     39  37  93 N7          N/A
$$

REGIONAL REPORTS...SASKATCHEWAN

CITY           SKY/WX    TMP DP  RH WIND       PRES   REMARKS
SWIFT CURRENT  CLOUDY    28  25  86 E13G20    29.84R WCI  18
SASKATOON      CLOUDY    30  23  74 SE9       29.98R WCI  22
CYPRESS HILLS    N/A     28  28 100 E7          N/A  WCI  21
VAL MARIE        N/A     30  25  80 E16         N/A  WCI  19
ASSINIBOIA       N/A     34  34 100 SE10        N/A  WCI  26
$$



USA.gov is the U.S. government's official web portal to all federal, state and local government web resources and services.